Location: Litvinovka
(48.6667°N, 34.3500°E)
Time: 00:34:25
(UTC+00:00)

USA 116 - Pass Details

Date: 18 September 2020
Orbit: 405 x 834 km, 97.9° (Epoch: 18 November)

Event Time Altitude Azimuth Distance (km) Brightness Sun altitude
Rises 16:40:18 0° 13° (NNE) 2,417 7.0 -9.3°
Reaches altitude 10° 16:42:14 10° 12° (NNE) 1,580 6.1 -9.6°
Maximum altitude 16:45:35 84° 286° (WNW) 485 3.5 -10.2°
Drops below altitude 10° 16:49:18 10° 197° (SSW) 1,740 6.3 -10.8°
Sets 16:51:31 0° 197° (SSW) 2,691 7.3 -11.1°
